Regional Weather Roundup
Issued by NWS Glasgow, MT

Home | Current Version | Previous Version | Text Only | Print | Product List | Glossary On
Versions: 1 2 3 4 5 6 7 8 9 10 11 12 13 14 15 16 17 18 19 20 21 22 23 24 25 26 27 28 29 30 31 32 33 34 35 36 37 38 39 40 41 42 43 44 45 46 47 48 49 50
000
ASUS45 KGGW 280115
RWRGGW
HOURLY REGIONAL WEATHER ROUNDUP FOR NORTHEAST MONTANA
NATIONAL WEATHER SERVICE GLASGOW MONTANA
700 PM MDT MON JUL 27 2015

NOTE: "FAIR" INDICATES FEW OR NO CLOUDS BELOW 12,000 FEET WITH NO
SIGNIFICANT WEATHER AND/OR OBSTRUCTIONS TO VISISBILITY.

NORTHEAST MONTANA


CITY           SKY/WX    TMP DP  RH WIND       PRES   REMARKS
GLASGOW        TSTM      64  61  90 NW25G36   29.60R
PLENTYWOOD       N/A     85  59  41 SE13G26     N/A
WOLF POINT     NOT AVBL
JORDAN           N/A     63  52  67 W32G44    29.69S
WINNETT          N/A     54  50  86 W24G44      N/A
SIDNEY         PTSUNNY  N/A N/A N/A E9        29.48F
GLENDIVE       NOT AVBL
MALTA            N/A     59  55  87 W17G35      N/A
SCOBEY           N/A     74  59  59 NE24G35   29.57F

FORT PECK REPORTS


CITY           SKY/WX    TMP DP  RH WIND       PRES   REMARKS
FORT PECK        N/A     70  62  76 W15G40      N/A
THE PINES        N/A     60  56  86 W13G35      N/A

SOUTHEAST MONTANA


CITY           SKY/WX    TMP DP  RH WIND       PRES   REMARKS
BILLINGS       CLOUDY    55  50  83 NW18      29.86R
MILES CITY     PTSUNNY   69  60  73 W38G47    29.60R
BAKER          TSTM      72  59  63 S26G35    29.64R
LIVINGSTON     LGT RAIN  52  49  89 NW5       29.98S

CENTRAL MONTANA


CITY           SKY/WX    TMP DP  RH WIND       PRES   REMARKS
HAVRE          LGT RAIN  56  54  93 W14       29.87F
LEWISTOWN      CLOUDY    52  48  86 NW10      29.95R
GREAT FALLS    LGT RAIN  51  50  96 W13       29.98S
CUT BANK       LGT RAIN  52  48  86 W15       29.98F
HELENA         LGT RAIN  52  47  83 W3        30.03F
BUTTE          CLOUDY    49  40  71 N6        30.07S
BOZEMAN        LGT RAIN  49  45  86 W12       30.04R

WESTERN MONTANA


CITY           SKY/WX    TMP DP  RH WIND       PRES   REMARKS
MISSOULA       CLOUDY    54  46  74 NW3       30.09F
KALISPELL      NOT AVBL

NORTH DAKOTA


CITY           SKY/WX    TMP DP  RH WIND       PRES   REMARKS
WILLISTON      PTSUNNY   89  67  47 E14       29.53F
DICKINSON      CLOUDY    81  58  45 S10       29.61R
MINOT          PTSUNNY   87  68  52 SE9       29.62F
BISMARCK       CLOUDY    86  72  62 SE13      29.65S

SOUTHERN SASKATCHEWAN


CITY           SKY/WX    TMP DP  RH WIND       PRES   REMARKS
REGINA         TSTM      63  59  88 NE24G32   29.68F
ESTEVAN        CLOUDY    81  70  69 E20G26    29.61F
SWIFT CURRENT  LGT RAIN  61  61 100 N15       29.76F



USA.gov is the U.S. government's official web portal to all federal, state and local government web resources and services.